Home > Time Zones > World Clock > Weather > France > Caen > Past weeks

Flag for France Weather past 2 weeks in Caen, France

Now
64 °F

Clear.


Feels Like: 64 °F
Forecast: 56 / 65 °F
Wind: 8 mph from West

Location: Caen Airport

Current Time: Aug 29, 2014 at 9:12:51 PM

Latest Report: Aug 29, 2014 at 8:30 PM


Visibility: N/A

Pressure: 30.07 "Hg

Humidity: 73%

Dew point: 55 °F

Location of CaenLocation

Historic Weather in Caen — Graph

°F

Caen temperature yesterday

Maximum temperature yesterday: 72 °F (at 3:30 PM)
Minimum temperature yesterday: 59 °F (at 11:30 PM)
Average temperature yesterday: 65 °F

Past Weeks' High & Low Weather Summary

 TemperatureHumidityPressure
High72 °F (Aug 16, 4:00 PM)100% (Aug 27, 5:30 AM)30.24 "Hg (Aug 27, 5:30 AM)
Low46 °F (Aug 20, 4:30 AM)40% (Aug 21, 5:00 PM)29.62 "Hg (Aug 26, 4:30 AM)
Average59 °F79%29.98 "Hg
* Reported Aug 14 7:00 PM — Aug 29 7:30 PM, Caen, Weather by CustomWeather, © 2014

Note: Actual official high and low records may vary slightly from our data, if they occured in-between our weather recording intervals... More about our weather records

Advertising

Caen weather history for previous 24 hours

 ConditionsComfort  
Time TempWeatherWind HumidityBarometerVisibility
7:30 PM
Aug 29
66 °FClear.13 mph68%30.07 "HgN/A
7:00 PM68 °FPassing clouds.12 mph60%30.07 "HgN/A
6:30 PM68 °FScattered clouds.15 mph60%30.07 "HgN/A
6:00 PM68 °FClear.15 mph60%30.07 "HgN/A
5:30 PM68 °FOvercast.14 mph64%30.07 "HgN/A
5:00 PM68 °FCloudy.16 mph60%30.07 "HgN/A
4:30 PM68 °FScattered clouds.17 mph60%30.07 "HgN/A
4:00 PM70 °FPassing clouds.16 mph57%30.07 "HgN/A
3:30 PM70 °FScattered clouds.13 mph60%30.07 "HgN/A
3:00 PM68 °FBroken clouds.15 mph64%30.07 "HgN/A
2:30 PM68 °FPassing clouds.14 mph64%30.07 "HgN/A
2:00 PM68 °FBroken clouds.14 mph69%30.07 "HgN/A
1:30 PM68 °FScattered clouds.16 mph64%30.07 "HgN/A
1:00 PM66 °FPartly sunny.16 mph68%30.07 "HgN/A
12:30 PM66 °FScattered clouds.13 mph73%30.07 "HgN/A
12:00 PM66 °FClear.15 mph73%30.07 "HgN/A
11:30 AM64 °FPassing clouds.15 mph78%30.07 "HgN/A
11:00 AM64 °FScattered clouds.14 mph78%30.07 "HgN/A
10:30 AM63 °FScattered clouds.13 mph83%30.04 "HgN/A
10:00 AM63 °FPassing clouds.12 mph83%30.04 "HgN/A
9:30 AM61 °FPassing clouds.10 mph88%30.04 "HgN/A
9:00 AM59 °FClear.9 mph94%30.04 "HgN/A
8:30 AM57 °FClear.8 mph94%30.04 "HgN/A
8:00 AM55 °FClear.8 mph100%30.04 "HgN/A
7:30 AM54 °FClear.7 mph100%30.04 "HgN/A
7:00 AM54 °FClear.5 mph100%30.01 "HgN/A
6:30 AM55 °FClear.7 mph94%30.01 "HgN/A
6:00 AM54 °FClear.6 mph100%30.01 "HgN/A
5:30 AM55 °FClear.3 mph100%30.01 "HgN/A
5:00 AM57 °FPassing clouds.5 mph94%30.01 "HgN/A
4:30 AM57 °FClear.2 mph94%30.01 "HgN/A
4:00 AM59 °FClear.3 mph94%30.01 "HgN/A
3:30 AM59 °FClear.5 mph94%30.01 "HgN/A
3:00 AM59 °FClear.5 mph94%30.01 "HgN/A
2:30 AM59 °FMostly cloudy.5 mph88%30.01 "HgN/A
2:00 AM59 °FOvercast.5 mph88%30.01 "HgN/A
1:30 AM59 °FOvercast.7 mph94%30.01 "HgN/A
1:00 AM59 °FMostly cloudy.6 mph94%30.01 "HgN/A
12:30 AM59 °FMostly cloudy.6 mph94%30.01 "HgN/A
12:00 AM59 °FMostly cloudy.6 mph94%30.01 "HgN/A
11:30 PM
Aug 28
59 °FMostly cloudy.8 mph88%30.01 "HgN/A
11:00 PM61 °FPassing clouds.7 mph94%30.01 "HgN/A
10:30 PM61 °FLight rain. Partly cloudy.9 mph94%30.01 "HgN/A
10:00 PM63 °FMostly cloudy.6 mph88%30.01 "HgN/A
9:30 PM63 °FBroken clouds.8 mph83%29.98 "HgN/A
9:00 PM64 °FBroken clouds.3 mph94%29.98 "HgN/A
Weather by CustomWeather, © 2014

See weather overviewHow to use our weather pages